| time (UTC) | temp F | wind direction | speed knots | gust knots | rain 1hr in | rain 24hr in | rain mn in | humidity % | barometer mb |
| 20260504214504 | 73 | 162 | 0.0 | 2.6 | 0.00 | 0.00 | 0.00 | 78 | 1008.6 |
| 20260504213004 | 73 | 151 | 0.0 | 0.9 | 0.00 | 0.00 | 0.00 | 77 | 1008.7 |
| 20260504211503 | 73 | 121 | 0.9 | 7.0 | 0.00 | 0.00 | 0.00 | 77 | 1008.8 |
| 20260504210002 | 73 | 132 | 0.0 | 2.6 | 0.00 | 0.00 | 0.00 | 76 | 1008.7 |
| 20260504204503 | 73 | 174 | 0.0 | 0.0 | 0.00 | 0.00 | 0.00 | 78 | 1008.8 |
| 20260504203113 | 73 | 173 | 0.0 | 2.6 | 0.00 | 0.00 | 0.00 | 77 | 1008.8 |
| 20260504201601 | 73 | 268 | 0.0 | 0.9 | 0.00 | 0.00 | 0.00 | 78 | 1008.8 |
| 20260504200058 | 73 | 160 | 0.0 | 6.1 | 0.00 | 0.00 | 0.00 | 77 | 1009.0 |
| 20260504194556 | 73 | 125 | 0.0 | 4.3 | 0.00 | 0.00 | 0.00 | 78 | 1009.0 |
| 20260504193055 | 73 | 128 | 0.0 | 2.6 | 0.00 | 0.00 | 0.00 | 79 | 1009.1 |
| 20260504191604 | 73 | 123 | 0.0 | 1.7 | 0.00 | 0.00 | 0.00 | 78 | 1009.3 |
| 20260504190054 | 73 | 129 | 0.0 | 2.6 | 0.00 | 0.00 | 0.00 | 77 | 1009.5 |
| 20260504184549 | 72 | 127 | 0.0 | 6.1 | 0.00 | 0.00 | 0.00 | 78 | 1009.8 |
| 20260504183047 | 73 | 138 | 0.0 | 4.3 | 0.00 | 0.00 | 0.00 | 77 | 1010.0 |
| 20260504181549 | 73 | 210 | 0.0 | 4.3 | 0.00 | 0.00 | 0.00 | 76 | 1010.0 |
| 20260504180044 | 74 | 122 | 0.0 | 3.5 | 0.00 | 0.00 | 0.00 | 76 | 1010.3 |
| 20260504174543 | 74 | 137 | 0.0 | 4.3 | 0.00 | 0.00 | 0.00 | 77 | 1010.5 |
| 20260504173042 | 75 | 126 | 0.0 | 0.9 | 0.00 | 0.00 | 0.00 | 76 | 1010.7 |
| 20260504171539 | 74 | 134 | 0.0 | 2.6 | 0.00 | 0.00 | 0.00 | 77 | 1010.8 |
| 20260504140107 | 64 | 138 | 0.0 | 0.9 | 0.00 | 0.00 | 0.00 | 78 | 1012.7 |
| 20260504081551 | 49 | 128 | 0.0 | 0.0 | 0.00 | 0.00 | 0.00 | 97 | 1013.3 |
| 20260504044534 | 51 | 115 | 0.0 | 0.0 | 0.00 | 0.00 | 0.00 | 93 | 1012.6 |
| 20260504043030 | 51 | 115 | 0.0 | 0.0 | 0.00 | 0.00 | 0.00 | 92 | 1012.5 |
| 20260504041527 | 52 | 115 | 0.0 | 0.0 | 0.00 | 0.00 | 0.00 | 92 | 1012.4 |
| 20260504040027 | 52 | 115 | 0.0 | 0.9 | 0.00 | 0.00 | 0.00 | 92 | 1012.3 |
| 20260504034526 | 52 | 115 | 0.0 | 0.9 | 0.00 | 0.00 | 0.00 | 91 | 1012.2 |
| 20260504033025 | 52 | 115 | 0.0 | 0.9 | 0.00 | 0.00 | 0.00 | 91 | 1012.3 |
| 20260504031525 | 52 | 115 | 0.0 | 0.9 | 0.00 | 0.00 | 0.00 | 91 | 1012.1 |
| 20260504030023 | 52 | 115 | 0.0 | 1.7 | 0.00 | 0.00 | 0.00 | 92 | 1012.1 |
| 20260504024523 | 52 | 115 | 0.0 | 0.0 | 0.00 | 0.00 | 0.00 | 91 | 1012.1 |
| 20260504023023 | 53 | 115 | 0.0 | 0.0 | 0.00 | 0.00 | 0.00 | 91 | 1012.1 |
| 20260504021522 | 53 | 115 | 0.0 | 0.0 | 0.00 | 0.00 | 0.00 | 88 | 1012.1 |
| 20260504020023 | 54 | 115 | 0.0 | 0.0 | 0.00 | 0.00 | 0.00 | 88 | 1012.1 |
| 20260504014520 | 55 | 115 | 0.0 | 0.0 | 0.00 | 0.00 | 0.00 | 86 | 1012.1 |
| 20260504013026 | 55 | 115 | 0.0 | 0.0 | 0.00 | 0.00 | 0.00 | 84 | 1011.9 |
| 20260504011519 | 56 | 115 | 0.0 | 0.0 | 0.00 | 0.00 | 0.00 | 83 | 1011.7 |
| 20260504010018 | 56 | 115 | 0.0 | 0.0 | 0.00 | 0.00 | 0.00 | 83 | 1011.5 |
| 20260504004518 | 56 | 115 | 0.0 | 0.9 | 0.00 | 0.00 | 0.00 | 82 | 1011.3 |
| 20260504003018 | 56 | 115 | 0.0 | 0.0 | 0.00 | 0.00 | 0.00 | 81 | 1011.0 |
| 20260504001517 | 57 | 115 | 0.0 | 0.0 | 0.00 | 0.00 | 0.00 | 80 | 1010.9 |
| 20260504000045 | 58 | 115 | 0.0 | 0.0 | 0.00 | 0.00 | 0.00 | 79 | 1010.6 |
| 20260503234516 | 58 | 115 | 0.0 | 1.7 | 0.00 | 0.00 | 0.00 | 78 | 1010.6 |
| 20260503233016 | 59 | 115 | 0.0 | 2.6 | 0.00 | 0.00 | 0.00 | 78 | 1010.4 |
| 20260503231515 | 59 | 162 | 0.0 | 1.7 | 0.00 | 0.00 | 0.00 | 77 | 1010.2 |
| 20260503230018 | 60 | 121 | 0.0 | 1.7 | 0.00 | 0.00 | 0.00 | 76 | 1010.1 |
| 20260503224515 | 60 | 126 | 0.0 | 3.5 | 0.00 | 0.00 | 0.00 | 76 | 1010.2 |
| 20260503223016 | 60 | 120 | 0.0 | 1.7 | 0.00 | 0.00 | 0.00 | 75 | 1010.0 |
| 20260503221514 | 60 | 117 | 0.9 | 6.1 | 0.00 | 0.00 | 0.00 | 74 | 1009.9 |
| 20260503220013 | 60 | 127 | 0.0 | 4.3 | 0.00 | 0.00 | 0.00 | 74 | 1010.0 |